HST
1 20580U 90037B   24361.07889100  .00011096  00000-0  46393-3 0  9998
2 20580  28.4664 135.6170 0002165 357.1555   2.9026 15.21965119706254
ISS (ZARYA)
1 25544U 98067A   24361.26976194  .00022667  00000-0  40037-3 0  9990
2 25544  51.6376  83.6826 0005650   7.2326 352.8743 15.50245661488343
CXO
1 25867U 99040B   24363.54907146  .00000542  00000-0  00000-0 0  9995
2 25867  45.6069 138.9847 8664881 305.6489   0.2812  0.37806673 15296